This demonstration page uses our WeatherBlox Daily Observations layout. Learn more.

Left ArrowRight Arrow

36.17497, -115.13722

Hourly Observations for December 9, 2022

Temp ( °F °C ) Dew Point ( °F °C ) Humidity (%) Winds ( mph kmh ) Pressure ( in mb ) Visibility ( mi km ) Precip ( " mm )
12:53 am 00:53 Clear 41 5 27 -2.8 57 57 NNW 3 6 30.20 1023 10 16 0.00 0.00
1:53 am 01:53 Clear 41 5 28 -2.2 60 60 NNW 6 9 30.19 1023 10 16 0.00 0.00
2:53 am 02:53 Clear 40 4.4 27 -2.8 59 59 NNW 5 7 30.19 1022 10 16 0.00 0.00
3:53 am 03:53 Clear 39 3.9 27 -2.8 62 62 Calm 30.18 1022 10 16 0.00 0.00
4:53 am 04:53 Clear 38 3.3 27 -2.8 64 64 WNW 5 7 30.19 1023 10 16 0.00 0.00
5:53 am 05:53 Clear 40 4.4 27 -2.8 59 59 SSW 3 6 30.20 1023 10 16 0.00 0.00
6:53 am 06:53 Sunny 38 3.3 27 -2.8 64 64 Calm 30.22 1023 10 16 0.00 0.00
7:53 am 07:53 Sunny 39 3.9 27 -2.8 62 62 NNW 3 6 30.23 1024 10 16 0.00 0.00
8:53 am 08:53 Sunny 45 7.2 28 -2.2 51 51 Calm 30.24 1024 10 16 0.00 0.00
9:53 am 09:53 Sunny 50 10 27 -2.8 40 40 Calm 30.24 1024 10 16 0.00 0.00
10:53 am 10:53 Sunny 51 10.6 27 -2.8 39 39 Calm 30.21 1023 10 16 0.00 0.00
11:53 am 11:53 Sunny 53 11.7 27 -2.8 36 36 E 5 7 30.17 1022 10 16 0.00 0.00
12:53 pm 12:53 Sunny 54 12.2 27 -2.8 35 35 Calm 30.16 1021 10 16 0.00 0.00
1:53 pm 13:53 Sunny 55 12.8 26 -3.3 32 32 Calm 30.15 1021 10 16 0.00 0.00
2:53 pm 14:53 Sunny 56 13.3 25 -3.9 30 30 Calm 30.14 1021 10 16 0.00 0.00
3:53 pm 15:53 Sunny 54 12.2 24 -4.4 31 31 E 3 6 30.14 1021 10 16 0.00 0.00
4:53 pm 16:53 Clear 52 11.1 25 -3.9 35 35 Calm 30.14 1021 10 16 0.00 0.00
5:53 pm 17:53 Clear 52 11.1 25 -3.9 35 35 Calm 30.14 1021 10 16 0.00 0.00
6:53 pm 18:53 Clear 48 8.9 26 -3.3 42 42 Calm 30.17 1022 10 16 0.00 0.00
7:53 pm 19:53 Clear 47 8.3 27 -2.8 45 45 WNW 6 9 30.19 1022 10 16 0.00 0.00
8:53 pm 20:53 Clear 44 6.7 26 -3.3 49 49 Calm 30.19 1022 10 16 0.00 0.00
9:53 pm 21:53 Clear 43 6.1 26 -3.3 51 51 Calm 30.17 1022 10 16 0.00 0.00
10:53 pm 22:53 Clear 43 6.1 26 -3.3 51 51 Calm 30.16 1022 10 16 0.00 0.00
11:53 pm 23:53 Clear 41 5 26 -3.3 55 55 WSW 3 6 30.15 1021 10 16 0.00 0.00

Powered by AerisWeather